This is the latest recevied weather packets stored in our database for station/object WA6ODQ-13. If no packets are shown the sender has not sent any weather packets the latest 10 day(s).
| Time | Temp. | Humidity | Pressure | Rain* | Wind** | Luminosity | Snow |
|---|---|---|---|---|---|---|---|
| 1788676723 | 18.89° C | 52% | 1010.8 hPa | 0 mm | - | 0 W/m² | - |
| 1788676418 | 19.44° C | 53% | 1011 hPa | 0 mm | - | 0 W/m² | - |
| 1788676113 | 18.89° C | 53% | 1011 hPa | 0 mm | - | 0 W/m² | - |
| 1788675813 | 18.33° C | 54% | 1011.2 hPa | 0 mm | - | 0 W/m² | - |
| 1788675508 | 17.78° C | 62% | 1011.4 hPa | 0 mm | - | 0 W/m² | - |
| 1788675204 | 17.78° C | 64% | 1011.5 hPa | 0 mm | - | 0 W/m² | - |
| 1788674899 | 17.78° C | 64% | 1011.3 hPa | 0 mm | - | 0 W/m² | - |
| 1788674597 | 17.78° C | 65% | 1011.3 hPa | 0 mm | - | 0 W/m² | - |
| 1788674292 | 17.78° C | 65% | 1011.5 hPa | 0 mm | - | 0 W/m² | - |
| 1788673988 | 17.78° C | 66% | 1011.7 hPa | 0 mm | - | 0 W/m² | - |
| 1788673683 | 17.78° C | 67% | 1011.7 hPa | 0 mm | - | 0 W/m² | - |
| 1788673378 | 17.78° C | 66% | 1011.8 hPa | 0 mm | - | 0 W/m² | - |
| 1788673075 | 17.78° C | 66% | 1011.8 hPa | 0 mm | - | 0 W/m² | - |
| 1788672770 | 18.33° C | 63% | 1011.8 hPa | 0 mm | - | 0 W/m² | - |
| 1788672465 | 18.33° C | 63% | 1011.9 hPa | 0 mm | - | 0 W/m² | - |
| 1788672161 | 18.33° C | 64% | 1011.9 hPa | 0 mm | - | 0 W/m² | - |
| 1788671858 | 18.33° C | 62% | 1012 hPa | 0 mm | - | 0 W/m² | - |
| 1788671557 | 18.33° C | 62% | 1012.2 hPa | 0 mm | - | 0 W/m² | - |
| 1788671253 | 18.33° C | 63% | 1012 hPa | 0 mm | - | 0 W/m² | - |
| 1788670948 | 18.89° C | 61% | 1012.2 hPa | 0 mm | - | 0 W/m² | - |
| 1788670647 | 18.89° C | 62% | 1011.8 hPa | 0 mm | - | 0 W/m² | - |
| 1788670342 | 18.89° C | 61% | 1011.9 hPa | 0 mm | - | 0 W/m² | - |
| 1788670037 | 18.89° C | 60% | 1011.9 hPa | 0 mm | - | 0 W/m² | - |
| 1788669732 | 18.89° C | 60% | 1011.8 hPa | 0 mm | - | 0 W/m² | - |
| 1788669428 | 18.89° C | 60% | 1011.8 hPa | 0 mm | - | 0 W/m² | - |
* Rain latest hour (hover to see other rain measurements)
** Current wind speed in m/s (hover to see current wind gust speed)